カタリナ彗星

P/2013 AL76 ( Catalina )

English version
Home page
Updated on September 14, 2013

---------------------------------------------------------------------

・ プロフィール

発見日 2013年1月14日
発見光度 19.8等
発見者 J. A. Johnson (Catalina Sky Survey)

・ 写真集

・ 軌道要素

Epoch 2012 Dec. 19.0 TT = JDT 2456280.5
T 2012 Dec. 13.32146 TT                                 MPC
q   2.0475438            (2000.0)            P               Q
n   0.05950268     Peri.   27.19859     -0.52751941     +0.78600598
a   6.4979801      Node   145.94034     +0.63647249     +0.11432448
e   0.6848953      Incl.  144.85899     +0.56269534     +0.60755618
P  16.6
From 47 observations 2013 Jan. 14-Feb. 6, mean residual 0".6.

・ 光度変化

        m1 = 16.0 + 5 logΔ + 10.0 log r

---------------------------------------------------------------------

軌道要素はM.P.E.C. 2013-C52に掲載されたものです。
光度グラフはComet for Windowsで作成したものです。

---------------------------------------------------------------------

Copyright(C) Seiichi Yoshida (comet@aerith.net). All rights reserved.